Time,TemperatureF,DewpointF,PressureIn,WindDirection,WindDirectionDegrees,WindSpeedMPH,WindSpeedGustMPH,Humidity,HourlyPrecipIn,Conditions,Clouds,dailyrainin,SoftwareType,DateUTC
2013-02-20 00:03:00,8.5,1.5,30.17,NW,315,4.0,8.0,73,-99.99,,,0.00,1-wire,2013-02-20 06:03:00,
2013-02-20 00:09:00,8.4,1.6,30.18,NW,304,5.0,13.0,73,-99.99,,,0.00,1-wire,2013-02-20 06:09:00,
2013-02-20 00:14:00,8.3,1.5,30.18,NW,304,3.0,10.0,73,-99.99,,,0.00,1-wire,2013-02-20 06:14:00,
2013-02-20 00:20:00,8.3,1.2,30.18,NW,304,4.0,9.0,72,-99.99,,,0.00,1-wire,2013-02-20 06:20:00,
2013-02-20 00:25:00,8.3,1.3,30.18,NW,312,4.0,8.0,73,-99.99,,,0.00,1-wire,2013-02-20 06:25:00,
2013-02-20 00:30:00,8.1,1.3,30.18,NW,312,3.0,9.0,73,-99.99,,,0.00,1-wire,2013-02-20 06:30:00,
2013-02-20 00:35:00,8.3,1.5,30.18,NW,312,1.0,3.0,73,-99.99,,,0.00,1-wire,2013-02-20 06:35:00,
2013-02-20 00:40:00,8.3,1.4,30.18,NW,312,3.0,8.0,73,-99.99,,,0.00,1-wire,2013-02-20 06:40:00,
2013-02-20 00:46:00,8.0,1.3,30.19,NW,312,3.0,6.0,73,-99.99,,,0.00,1-wire,2013-02-20 06:46:00,
2013-02-20 00:52:00,8.1,1.3,30.19,NW,310,3.0,6.0,73,-99.99,,,0.00,1-wire,2013-02-20 06:52:00,
2013-02-20 00:57:00,8.1,1.4,30.19,NW,310,3.0,6.0,73,-99.99,,,0.00,1-wire,2013-02-20 06:57:00,
2013-02-20 01:02:00,8.0,1.4,30.20,NW,310,3.0,10.0,74,-99.99,,,0.00,1-wire,2013-02-20 07:02:00,
2013-02-20 01:07:00,7.8,1.2,30.20,NW,311,3.0,6.0,74,-99.99,,,0.00,1-wire,2013-02-20 07:07:00,
2013-02-20 01:12:00,8.0,1.4,30.20,NW,311,2.0,6.0,74,-99.99,,,0.00,1-wire,2013-02-20 07:12:00,
2013-02-20 01:17:00,7.8,1.2,30.20,NW,311,5.0,8.0,74,-99.99,,,0.00,1-wire,2013-02-20 07:17:00,
2013-02-20 01:22:00,7.7,1.4,30.20,WNW,296,3.0,6.0,75,-99.99,,,0.00,1-wire,2013-02-20 07:22:00,
2013-02-20 01:27:00,7.6,1.1,30.21,WNW,296,4.0,6.0,74,-99.99,,,0.00,1-wire,2013-02-20 07:27:00,
2013-02-20 01:32:00,7.8,1.4,30.21,WNW,296,2.0,3.0,74,-99.99,,,0.00,1-wire,2013-02-20 07:32:00,
2013-02-20 01:37:00,7.8,1.4,30.21,NW,304,2.0,3.0,75,-99.99,,,0.00,1-wire,2013-02-20 07:37:00,
2013-02-20 01:42:00,7.7,1.5,30.21,NW,304,2.0,3.0,75,-99.99,,,0.00,1-wire,2013-02-20 07:42:00,
2013-02-20 01:47:00,7.6,1.6,30.22,NW,304,2.0,5.0,76,-99.99,,,0.00,1-wire,2013-02-20 07:47:00,
2013-02-20 01:52:00,8.0,1.9,30.22,NW,309,0.0,0.0,76,-99.99,,,0.00,1-wire,2013-02-20 07:52:00,
2013-02-20 01:57:00,7.6,1.9,30.22,NW,309,2.0,6.0,77,-99.99,,,0.00,1-wire,2013-02-20 07:57:00,
2013-02-20 02:05:00,6.9,1.7,30.22,NW,309,2.0,6.0,79,-99.99,,,0.00,1-wire,2013-02-20 08:05:00,
2013-02-20 02:10:00,6.9,1.9,30.22,WNW,303,2.0,6.0,80,-99.99,,,0.00,1-wire,2013-02-20 08:10:00,
2013-02-20 02:15:00,7.0,2.0,30.22,WNW,303,2.0,3.0,79,-99.99,,,0.00,1-wire,2013-02-20 08:15:00,
2013-02-20 02:20:00,6.5,1.8,30.23,WNW,303,2.0,6.0,80,-99.99,,,0.00,1-wire,2013-02-20 08:20:00,
2013-02-20 02:25:00,6.6,1.9,30.23,WNW,295,1.0,3.0,80,-99.99,,,0.00,1-wire,2013-02-20 08:25:00,
2013-02-20 02:30:00,6.3,1.6,30.22,WNW,295,3.0,6.0,81,-99.99,,,0.00,1-wire,2013-02-20 08:30:00,
2013-02-20 02:35:00,6.4,1.9,30.23,WNW,295,2.0,6.0,81,-99.99,,,0.00,1-wire,2013-02-20 08:35:00,
2013-02-20 02:40:00,6.2,1.5,30.23,WNW,295,3.0,6.0,81,-99.99,,,0.00,1-wire,2013-02-20 08:40:00,
2013-02-20 02:46:00,6.2,1.6,30.23,WNW,295,2.0,6.0,81,-99.99,,,0.00,1-wire,2013-02-20 08:46:00,
2013-02-20 02:51:00,6.0,1.5,30.23,WNW,296,3.0,9.0,81,-99.99,,,0.00,1-wire,2013-02-20 08:51:00,
2013-02-20 02:57:00,6.3,1.7,30.23,WNW,296,1.0,3.0,81,-99.99,,,0.00,1-wire,2013-02-20 08:57:00,
2013-02-20 03:02:00,5.9,1.4,30.23,WNW,296,1.0,3.0,81,-99.99,,,0.00,1-wire,2013-02-20 09:02:00,
2013-02-20 03:07:00,6.0,1.3,30.22,NW,307,4.0,14.0,81,-99.99,,,0.00,1-wire,2013-02-20 09:07:00,
2013-02-20 03:13:00,5.9,1.4,30.23,NW,307,3.0,6.0,81,-99.99,,,0.00,1-wire,2013-02-20 09:13:00,
2013-02-20 03:18:00,6.0,1.5,30.23,NW,307,3.0,6.0,81,-99.99,,,0.00,1-wire,2013-02-20 09:18:00,
2013-02-20 03:24:00,5.9,1.4,30.22,WNW,302,3.0,6.0,81,-99.99,,,0.00,1-wire,2013-02-20 09:24:00,
2013-02-20 03:29:00,5.7,1.4,30.23,WNW,302,1.0,3.0,82,-99.99,,,0.00,1-wire,2013-02-20 09:29:00,
2013-02-20 03:34:00,5.8,1.6,30.23,WNW,302,2.0,6.0,82,-99.99,,,0.00,1-wire,2013-02-20 09:34:00,
2013-02-20 03:39:00,5.9,1.5,30.24,WNW,301,3.0,6.0,82,-99.99,,,0.00,1-wire,2013-02-20 09:39:00,
2013-02-20 03:44:00,5.9,1.4,30.23,WNW,301,3.0,6.0,81,-99.99,,,0.00,1-wire,2013-02-20 09:44:00,
2013-02-20 03:50:00,5.8,1.3,30.24,WNW,301,2.0,6.0,81,-99.99,,,0.00,1-wire,2013-02-20 09:50:00,
2013-02-20 03:55:00,5.9,1.3,30.25,WNW,300,4.0,8.0,81,-99.99,,,0.00,1-wire,2013-02-20 09:55:00,
2013-02-20 04:01:00,6.0,1.4,30.25,WNW,300,1.0,3.0,81,-99.99,,,0.00,1-wire,2013-02-20 10:01:00,
2013-02-20 04:06:00,6.0,1.4,30.25,WNW,297,4.0,8.0,81,-99.99,,,0.00,1-wire,2013-02-20 10:06:00,
2013-02-20 04:11:00,6.1,1.5,30.25,WNW,297,3.0,6.0,81,-99.99,,,0.00,1-wire,2013-02-20 10:11:00,
2013-02-20 04:16:00,6.1,1.4,30.25,WNW,297,1.0,3.0,81,-99.99,,,0.00,1-wire,2013-02-20 10:16:00,
2013-02-20 04:21:00,5.8,1.2,30.25,NW,307,4.0,6.0,81,-99.99,,,0.00,1-wire,2013-02-20 10:21:00,
2013-02-20 04:26:00,5.7,1.2,30.25,NW,307,4.0,13.0,81,-99.99,,,0.00,1-wire,2013-02-20 10:26:00,
2013-02-20 04:31:00,5.8,1.5,30.25,NW,307,2.0,6.0,82,-99.99,,,0.00,1-wire,2013-02-20 10:31:00,
2013-02-20 04:36:00,5.9,1.5,30.25,NW,305,2.0,6.0,82,-99.99,,,0.00,1-wire,2013-02-20 10:36:00,
2013-02-20 04:41:00,5.7,1.2,30.26,NW,305,3.0,8.0,81,-99.99,,,0.00,1-wire,2013-02-20 10:41:00,
2013-02-20 04:46:00,5.9,1.5,30.26,NW,305,3.0,9.0,81,-99.99,,,0.00,1-wire,2013-02-20 10:46:00,
2013-02-20 04:51:00,5.9,1.3,30.26,NW,305,1.0,3.0,81,-99.99,,,0.00,1-wire,2013-02-20 10:51:00,
2013-02-20 04:56:00,6.0,1.4,30.26,NW,305,2.0,3.0,81,-99.99,,,0.00,1-wire,2013-02-20 10:56:00,
2013-02-20 05:01:00,6.0,1.5,30.27,NW,305,1.0,6.0,81,-99.99,,,0.00,1-wire,2013-02-20 11:01:00,
2013-02-20 05:06:00,6.1,1.5,30.27,NW,306,2.0,6.0,81,-99.99,,,0.00,1-wire,2013-02-20 11:06:00,
2013-02-20 05:11:00,6.1,1.6,30.27,NW,306,1.0,3.0,81,-99.99,,,0.00,1-wire,2013-02-20 11:11:00,
2013-02-20 05:16:00,5.9,1.6,30.27,NW,306,2.0,8.0,82,-99.99,,,0.00,1-wire,2013-02-20 11:16:00,
2013-02-20 05:21:00,6.0,1.5,30.27,NW,314,1.0,3.0,81,-99.99,,,0.00,1-wire,2013-02-20 11:21:00,
2013-02-20 05:26:00,5.8,1.3,30.27,NW,314,2.0,6.0,82,-99.99,,,0.00,1-wire,2013-02-20 11:26:00,
2013-02-20 05:31:00,5.8,1.3,30.27,NW,314,1.0,3.0,81,-99.99,,,0.00,1-wire,2013-02-20 11:31:00,
2013-02-20 05:36:00,5.7,1.2,30.27,NW,310,4.0,9.0,81,-99.99,,,0.00,1-wire,2013-02-20 11:36:00,
2013-02-20 05:41:00,6.0,1.5,30.27,NW,310,1.0,3.0,81,-99.99,,,0.00,1-wire,2013-02-20 11:41:00,
2013-02-20 05:46:00,5.7,1.3,30.27,NW,310,4.0,9.0,81,-99.99,,,0.00,1-wire,2013-02-20 11:46:00,
2013-02-20 05:51:00,5.7,1.2,30.27,NW,306,3.0,6.0,81,-99.99,,,0.00,1-wire,2013-02-20 11:51:00,
2013-02-20 05:56:00,5.6,1.4,30.27,NW,306,2.0,6.0,82,-99.99,,,0.00,1-wire,2013-02-20 11:56:00,
2013-02-20 06:02:00,5.5,1.2,30.27,NW,306,5.0,8.0,82,-99.99,,,0.00,1-wire,2013-02-20 12:02:00,
2013-02-20 06:07:00,5.9,1.8,30.27,NW,316,2.0,6.0,83,-99.99,,,0.00,1-wire,2013-02-20 12:07:00,
2013-02-20 06:12:00,5.7,1.6,30.27,NW,316,4.0,11.0,83,-99.99,,,0.00,1-wire,2013-02-20 12:12:00,
2013-02-20 06:17:00,5.8,1.6,30.27,NW,316,2.0,6.0,83,-99.99,,,0.00,1-wire,2013-02-20 12:17:00,
2013-02-20 06:22:00,5.7,1.6,30.27,NW,318,4.0,6.0,83,-99.99,,,0.00,1-wire,2013-02-20 12:22:00,
2013-02-20 06:28:00,5.6,1.6,30.27,NW,318,3.0,8.0,83,-99.99,,,0.00,1-wire,2013-02-20 12:28:00,
2013-02-20 06:33:00,5.7,1.6,30.27,NW,318,3.0,6.0,83,-99.99,,,0.00,1-wire,2013-02-20 12:33:00,
2013-02-20 06:39:00,5.6,1.6,30.27,NW,306,4.0,8.0,83,-99.99,,,0.00,1-wire,2013-02-20 12:39:00,
2013-02-20 06:44:00,5.9,1.8,30.27,NW,306,4.0,9.0,83,-99.99,,,0.00,1-wire,2013-02-20 12:44:00,
2013-02-20 06:49:00,5.9,1.8,30.27,NW,306,2.0,6.0,83,-99.99,,,0.00,1-wire,2013-02-20 12:49:00,
2013-02-20 06:55:00,6.0,1.9,30.28,NW,321,1.0,6.0,83,-99.99,,,0.00,1-wire,2013-02-20 12:55:00,
2013-02-20 07:00:00,5.9,1.8,30.28,NW,321,1.0,3.0,83,-99.99,,,0.00,1-wire,2013-02-20 13:00:00,
2013-02-20 07:06:00,6.0,1.9,30.29,NW,318,2.0,6.0,83,-99.99,,,0.00,1-wire,2013-02-20 13:06:00,
2013-02-20 07:11:00,6.0,1.9,30.29,NW,318,1.0,6.0,83,-99.99,,,0.00,1-wire,2013-02-20 13:11:00,
2013-02-20 07:17:00,6.1,2.2,30.29,NW,318,1.0,3.0,83,-99.99,,,0.00,1-wire,2013-02-20 13:17:00,
2013-02-20 07:22:00,6.1,2.1,30.29,NW,313,1.0,3.0,83,-99.99,,,0.00,1-wire,2013-02-20 13:22:00,
2013-02-20 07:27:00,6.3,2.3,30.29,NW,313,2.0,6.0,83,-99.99,,,0.00,1-wire,2013-02-20 13:27:00,
2013-02-20 07:32:00,6.3,2.3,30.29,NW,313,2.0,6.0,83,-99.99,,,0.00,1-wire,2013-02-20 13:32:00,
2013-02-20 07:37:00,6.4,2.5,30.29,NW,323,6.0,13.0,83,-99.99,,,0.00,1-wire,2013-02-20 13:37:00,
2013-02-20 07:42:00,6.8,2.8,30.29,NW,323,2.0,6.0,83,-99.99,,,0.00,1-wire,2013-02-20 13:42:00,
2013-02-20 07:47:00,6.6,2.3,30.29,NW,323,8.0,13.0,82,-99.99,,,0.00,1-wire,2013-02-20 13:47:00,
2013-02-20 07:52:00,6.9,2.7,30.29,NW,322,3.0,6.0,82,-99.99,,,0.00,1-wire,2013-02-20 13:52:00,
2013-02-20 07:57:00,7.2,2.8,30.29,NW,322,3.0,6.0,82,-99.99,,,0.00,1-wire,2013-02-20 13:57:00,
2013-02-20 08:02:00,7.3,2.9,30.29,NW,322,5.0,11.0,82,-99.99,,,0.00,1-wire,2013-02-20 14:02:00,
2013-02-20 08:07:00,7.4,2.9,30.29,NNW,330,5.0,11.0,82,-99.99,,,0.00,1-wire,2013-02-20 14:07:00,
2013-02-20 08:12:00,7.6,3.3,30.29,NNW,330,3.0,7.0,82,-99.99,,,0.00,1-wire,2013-02-20 14:12:00,
2013-02-20 08:17:00,7.9,3.4,30.30,NNW,330,4.0,8.0,81,-99.99,,,0.00,1-wire,2013-02-20 14:17:00,
2013-02-20 08:22:00,7.9,3.4,30.30,NNW,340,5.0,10.0,81,-99.99,,,0.00,1-wire,2013-02-20 14:22:00,
2013-02-20 08:27:00,8.0,3.7,30.30,NNW,340,5.0,9.0,82,-99.99,,,0.00,1-wire,2013-02-20 14:27:00,
2013-02-20 08:32:00,8.7,4.2,30.30,NNW,340,3.0,9.0,82,-99.99,,,0.00,1-wire,2013-02-20 14:32:00,
2013-02-20 08:37:00,8.8,4.2,30.30,NNW,336,6.0,11.0,81,-99.99,,,0.00,1-wire,2013-02-20 14:37:00,
2013-02-20 08:42:00,9.0,4.0,30.30,NNW,336,6.0,13.0,80,-99.99,,,0.00,1-wire,2013-02-20 14:42:00,
2013-02-20 08:47:00,9.3,4.5,30.30,NNW,336,3.0,8.0,80,-99.99,,,0.00,1-wire,2013-02-20 14:47:00,
2013-02-20 08:52:00,9.3,4.3,30.30,NNW,336,7.0,11.0,80,-99.99,,,0.00,1-wire,2013-02-20 14:52:00,
2013-02-20 08:57:00,10.4,5.2,30.30,NNW,336,3.0,8.0,79,-99.99,,,0.00,1-wire,2013-02-20 14:57:00,
2013-02-20 09:02:00,10.6,5.2,30.30,NNW,336,5.0,11.0,78,-99.99,,,0.00,1-wire,2013-02-20 15:02:00,
2013-02-20 09:07:00,10.8,5.2,30.30,NNW,335,4.0,8.0,78,-99.99,,,0.00,1-wire,2013-02-20 15:07:00,
2013-02-20 09:13:00,11.2,5.6,30.31,NNW,335,2.0,6.0,78,-99.99,,,0.00,1-wire,2013-02-20 15:13:00,
2013-02-20 09:18:00,11.6,5.8,30.31,NNW,335,4.0,6.0,77,-99.99,,,0.00,1-wire,2013-02-20 15:18:00,
2013-02-20 09:23:00,12.0,6.1,30.31,NNW,347,4.0,9.0,77,-99.99,,,0.00,1-wire,2013-02-20 15:23:00,
2013-02-20 09:28:00,12.8,6.5,30.31,NNW,347,5.0,8.0,75,-99.99,,,0.00,1-wire,2013-02-20 15:28:00,
2013-02-20 09:33:00,13.3,6.8,30.31,NNW,347,4.0,13.0,74,-99.99,,,0.00,1-wire,2013-02-20 15:33:00,
2013-02-20 09:38:00,12.6,6.0,30.31,NNW,341,7.0,14.0,74,-99.99,,,0.00,1-wire,2013-02-20 15:38:00,
2013-02-20 09:44:00,13.1,6.7,30.31,NNW,341,4.0,10.0,75,-99.99,,,0.00,1-wire,2013-02-20 15:44:00,
2013-02-20 09:49:00,13.4,6.7,30.31,NNW,341,3.0,6.0,74,-99.99,,,0.00,1-wire,2013-02-20 15:49:00,
2013-02-20 09:54:00,13.3,6.3,30.31,NNW,337,3.0,6.0,73,-99.99,,,0.00,1-wire,2013-02-20 15:54:00,
2013-02-20 10:00:00,13.9,6.6,30.31,NNW,337,5.0,9.0,72,-99.99,,,0.00,1-wire,2013-02-20 16:00:00,
2013-02-20 10:05:00,13.5,6.0,30.32,NNW,337,7.0,12.0,71,-99.99,,,0.00,1-wire,2013-02-20 16:05:00,
2013-02-20 10:10:00,13.8,6.2,30.32,NW,323,6.0,13.0,71,-99.99,,,0.00,1-wire,2013-02-20 16:10:00,
2013-02-20 10:16:00,14.7,7.2,30.31,NW,323,5.0,8.0,72,-99.99,,,0.00,1-wire,2013-02-20 16:16:00,
2013-02-20 10:21:00,15.4,7.4,30.32,NNW,330,5.0,11.0,70,-99.99,,,0.00,1-wire,2013-02-20 16:21:00,
2013-02-20 10:27:00,16.2,7.9,30.33,NNW,330,3.0,6.0,69,-99.99,,,0.00,1-wire,2013-02-20 16:27:00,
2013-02-20 10:32:00,15.7,6.9,30.33,NNW,330,5.0,9.0,68,-99.99,,,0.00,1-wire,2013-02-20 16:32:00,
2013-02-20 10:37:00,15.4,7.0,30.33,NNW,330,3.0,6.0,69,-99.99,,,0.00,1-wire,2013-02-20 16:37:00,
2013-02-20 10:42:00,16.4,7.8,30.33,NNW,330,4.0,6.0,68,-99.99,,,0.00,1-wire,2013-02-20 16:42:00,
2013-02-20 10:47:00,17.3,8.0,30.33,NNW,330,0.0,3.0,67,-99.99,,,0.00,1-wire,2013-02-20 16:47:00,
2013-02-20 10:53:00,17.5,8.4,30.33,NNW,329,3.0,6.0,67,-99.99,,,0.00,1-wire,2013-02-20 16:53:00,
2013-02-20 10:58:00,17.3,7.8,30.33,NNW,329,4.0,9.0,66,-99.99,,,0.00,1-wire,2013-02-20 16:58:00,
2013-02-20 11:03:00,17.3,8.1,30.33,NNW,329,5.0,11.0,67,-99.99,,,0.00,1-wire,2013-02-20 17:03:00,
2013-02-20 11:08:00,17.3,8.2,30.33,NW,311,4.0,9.0,67,-99.99,,,0.00,1-wire,2013-02-20 17:08:00,
2013-02-20 11:13:00,17.4,7.8,30.33,NW,311,5.0,9.0,65,-99.99,,,0.00,1-wire,2013-02-20 17:13:00,
2013-02-20 11:18:00,17.2,7.9,30.33,NW,311,5.0,10.0,66,-99.99,,,0.00,1-wire,2013-02-20 17:18:00,
2013-02-20 11:23:00,18.2,8.8,30.33,WNW,303,2.0,6.0,66,-99.99,,,0.00,1-wire,2013-02-20 17:23:00,
2013-02-20 11:28:00,18.4,8.0,30.33,WNW,303,3.0,6.0,63,-99.99,,,0.00,1-wire,2013-02-20 17:28:00,
2013-02-20 11:33:00,20.1,9.2,30.33,WNW,303,3.0,6.0,62,-99.99,,,0.00,1-wire,2013-02-20 17:33:00,
2013-02-20 11:38:00,18.9,8.3,30.33,NW,307,3.0,6.0,63,-99.99,,,0.00,1-wire,2013-02-20 17:38:00,
2013-02-20 11:43:00,18.7,8.5,30.33,NW,307,4.0,8.0,64,-99.99,,,0.00,1-wire,2013-02-20 17:43:00,
2013-02-20 11:48:00,19.2,8.8,30.32,NW,307,3.0,8.0,63,-99.99,,,0.00,1-wire,2013-02-20 17:48:00,
2013-02-20 11:53:00,19.9,8.7,30.31,WNW,300,3.0,9.0,61,-99.99,,,0.00,1-wire,2013-02-20 17:53:00,
2013-02-20 11:58:00,19.7,9.0,30.31,WNW,300,4.0,8.0,63,-99.99,,,0.00,1-wire,2013-02-20 17:58:00,
2013-02-20 12:03:00,19.1,8.9,30.31,WNW,300,2.0,7.0,64,-99.99,,,0.00,1-wire,2013-02-20 18:03:00,
2013-02-20 12:08:00,19.9,9.6,30.31,NNW,334,3.0,6.0,64,-99.99,,,0.00,1-wire,2013-02-20 18:08:00,
2013-02-20 12:13:00,18.8,8.6,30.31,NNW,334,5.0,14.0,64,-99.99,,,0.00,1-wire,2013-02-20 18:13:00,
2013-02-20 12:18:00,18.9,8.8,30.30,NNW,334,3.0,6.0,64,-99.99,,,0.00,1-wire,2013-02-20 18:18:00,
2013-02-20 12:23:00,19.5,9.4,30.30,NNW,330,2.0,6.0,64,-99.99,,,0.00,1-wire,2013-02-20 18:23:00,
2013-02-20 12:28:00,19.6,9.5,30.30,NNW,330,3.0,6.0,64,-99.99,,,0.00,1-wire,2013-02-20 18:28:00,
2013-02-20 12:33:00,19.7,9.4,30.30,NNW,330,4.0,8.0,64,-99.99,,,0.00,1-wire,2013-02-20 18:33:00,
2013-02-20 12:38:00,19.5,9.4,30.31,NW,320,3.0,6.0,64,-99.99,,,0.00,1-wire,2013-02-20 18:38:00,
2013-02-20 12:43:00,20.4,9.8,30.31,NW,320,3.0,6.0,63,-99.99,,,0.00,1-wire,2013-02-20 18:43:00,
2013-02-20 12:48:00,20.9,9.4,30.31,NW,320,2.0,6.0,61,-99.99,,,0.00,1-wire,2013-02-20 18:48:00,
2013-02-20 12:53:00,20.6,9.5,30.31,NW,323,2.0,6.0,62,-99.99,,,0.00,1-wire,2013-02-20 18:53:00,
2013-02-20 12:58:00,21.2,9.5,30.31,NW,323,3.0,6.0,60,-99.99,,,0.00,1-wire,2013-02-20 18:58:00,
2013-02-20 13:03:00,22.2,10.4,30.31,NW,323,0.0,3.0,60,-99.99,,,0.00,1-wire,2013-02-20 19:03:00,
2013-02-20 13:08:00,22.5,10.2,30.31,NNW,331,3.0,6.0,59,-99.99,,,0.00,1-wire,2013-02-20 19:08:00,
2013-02-20 13:13:00,21.9,9.3,30.32,NNW,331,2.0,3.0,58,-99.99,,,0.00,1-wire,2013-02-20 19:13:00,
2013-02-20 13:18:00,21.0,8.4,30.33,NNW,331,4.0,9.0,58,-99.99,,,0.00,1-wire,2013-02-20 19:18:00,
2013-02-20 13:24:00,21.9,9.7,30.33,NW,305,3.0,8.0,59,-99.99,,,0.00,1-wire,2013-02-20 19:24:00,
2013-02-20 13:29:00,22.3,10.0,30.33,NW,305,2.0,3.0,59,-99.99,,,0.00,1-wire,2013-02-20 19:29:00,
2013-02-20 13:35:00,23.3,10.6,30.33,NW,305,1.0,5.0,58,-99.99,,,0.00,1-wire,2013-02-20 19:35:00,
2013-02-20 13:40:00,24.2,11.1,30.33,NW,325,3.0,6.0,57,-99.99,,,0.00,1-wire,2013-02-20 19:40:00,
2013-02-20 13:45:00,24.7,10.7,30.34,NW,325,2.0,6.0,55,-99.99,,,0.00,1-wire,2013-02-20 19:45:00,
2013-02-20 13:50:00,23.7,10.4,30.34,NW,325,3.0,6.0,56,-99.99,,,0.00,1-wire,2013-02-20 19:50:00,
2013-02-20 13:55:00,23.7,10.7,30.34,NNW,332,2.0,6.0,57,-99.99,,,0.00,1-wire,2013-02-20 19:55:00,
2013-02-20 14:01:00,23.4,10.5,30.34,NNW,332,5.0,8.0,57,-99.99,,,0.00,1-wire,2013-02-20 20:01:00,
2013-02-20 14:06:00,23.2,10.6,30.35,NW,326,4.0,8.0,58,-99.99,,,0.00,1-wire,2013-02-20 20:06:00,
2013-02-20 14:11:00,23.4,10.5,30.35,NW,326,3.0,6.0,57,-99.99,,,0.00,1-wire,2013-02-20 20:11:00,
2013-02-20 14:16:00,23.7,11.1,30.34,NW,326,3.0,6.0,58,-99.99,,,0.00,1-wire,2013-02-20 20:16:00,
2013-02-20 14:21:00,23.8,11.5,30.34,WNW,295,2.0,6.0,59,-99.99,,,0.00,1-wire,2013-02-20 20:21:00,
2013-02-20 14:26:00,23.1,10.2,30.34,WNW,295,1.0,3.0,57,-99.99,,,0.00,1-wire,2013-02-20 20:26:00,
2013-02-20 14:32:00,24.1,11.1,30.34,WNW,295,0.0,3.0,57,-99.99,,,0.00,1-wire,2013-02-20 20:32:00,
2013-02-20 14:37:00,23.4,10.2,30.33,WNW,303,5.0,11.0,56,-99.99,,,0.00,1-wire,2013-02-20 20:37:00,
2013-02-20 14:42:00,23.7,11.3,30.33,WNW,303,1.0,3.0,59,-99.99,,,0.00,1-wire,2013-02-20 20:42:00,
2013-02-20 14:47:00,23.5,10.6,30.33,WNW,303,4.0,6.0,57,-99.99,,,0.00,1-wire,2013-02-20 20:47:00,
2013-02-20 14:52:00,23.2,10.3,30.33,WNW,296,4.0,6.0,57,-99.99,,,0.00,1-wire,2013-02-20 20:52:00,
2013-02-20 14:57:00,23.5,10.4,30.32,WNW,296,3.0,6.0,57,-99.99,,,0.00,1-wire,2013-02-20 20:57:00,
2013-02-20 15:02:00,23.0,10.1,30.32,WNW,296,4.0,6.0,57,-99.99,,,0.00,1-wire,2013-02-20 21:02:00,
2013-02-20 15:07:00,23.1,10.3,30.32,NW,315,3.0,6.0,57,-99.99,,,0.00,1-wire,2013-02-20 21:07:00,
2013-02-20 15:12:00,23.4,10.6,30.32,NW,315,3.0,6.0,57,-99.99,,,0.00,1-wire,2013-02-20 21:12:00,
2013-02-20 15:17:00,23.2,10.5,30.31,NW,315,2.0,6.0,57,-99.99,,,0.00,1-wire,2013-02-20 21:17:00,
2013-02-20 15:22:00,23.4,10.8,30.31,NW,305,3.0,6.0,58,-99.99,,,0.00,1-wire,2013-02-20 21:22:00,
2013-02-20 15:27:00,23.2,10.4,30.31,NW,305,5.0,11.0,57,-99.99,,,0.00,1-wire,2013-02-20 21:27:00,
2013-02-20 15:32:00,22.9,10.1,30.31,NW,305,5.0,8.0,57,-99.99,,,0.00,1-wire,2013-02-20 21:32:00,
2013-02-20 15:37:00,23.7,10.7,30.31,NW,322,4.0,6.0,57,-99.99,,,0.00,1-wire,2013-02-20 21:37:00,
2013-02-20 15:42:00,23.4,10.4,30.32,NW,322,4.0,11.0,57,-99.99,,,0.00,1-wire,2013-02-20 21:42:00,
2013-02-20 15:47:00,23.3,10.7,30.32,NW,322,1.0,3.0,58,-99.99,,,0.00,1-wire,2013-02-20 21:47:00,
2013-02-20 15:52:00,23.1,10.5,30.31,NW,317,3.0,6.0,58,-99.99,,,0.00,1-wire,2013-02-20 21:52:00,
2013-02-20 15:57:00,23.3,10.5,30.31,NW,317,3.0,8.0,57,-99.99,,,0.00,1-wire,2013-02-20 21:57:00,
2013-02-20 16:02:00,23.0,10.2,30.32,NW,317,5.0,9.0,57,-99.99,,,0.00,1-wire,2013-02-20 22:02:00,
2013-02-20 16:07:00,23.1,11.0,30.31,NW,311,4.0,6.0,59,-99.99,,,0.00,1-wire,2013-02-20 22:07:00,
2013-02-20 16:12:00,22.9,11.0,30.32,NW,311,3.0,6.0,60,-99.99,,,0.00,1-wire,2013-02-20 22:12:00,
2013-02-20 16:17:00,22.7,10.4,30.32,NW,311,3.0,8.0,58,-99.99,,,0.00,1-wire,2013-02-20 22:17:00,
2013-02-20 16:22:00,23.0,10.8,30.32,NW,310,3.0,6.0,59,-99.99,,,0.00,1-wire,2013-02-20 22:22:00,
2013-02-20 16:28:00,22.9,10.7,30.33,NW,310,4.0,6.0,59,-99.99,,,0.00,1-wire,2013-02-20 22:28:00,
2013-02-20 16:33:00,22.6,10.8,30.32,NW,310,3.0,6.0,60,-99.99,,,0.00,1-wire,2013-02-20 22:33:00,
2013-02-20 16:38:00,22.5,10.0,30.33,NW,308,5.0,8.0,58,-99.99,,,0.00,1-wire,2013-02-20 22:38:00,
2013-02-20 16:44:00,22.6,10.9,30.32,NW,308,4.0,9.0,60,-99.99,,,0.00,1-wire,2013-02-20 22:44:00,
2013-02-20 16:49:00,22.3,9.8,30.32,NW,308,2.0,6.0,58,-99.99,,,0.00,1-wire,2013-02-20 22:49:00,
2013-02-20 16:55:00,21.9,10.2,30.31,NW,317,3.0,6.0,60,-99.99,,,0.00,1-wire,2013-02-20 22:55:00,
2013-02-20 17:00:00,22.0,10.4,30.31,NW,317,4.0,6.0,60,-99.99,,,0.00,1-wire,2013-02-20 23:00:00,
2013-02-20 17:06:00,21.8,10.3,30.31,NW,318,5.0,9.0,61,-99.99,,,0.00,1-wire,2013-02-20 23:06:00,
2013-02-20 17:11:00,21.9,10.8,30.31,NW,318,3.0,6.0,62,-99.99,,,0.00,1-wire,2013-02-20 23:11:00,
2013-02-20 17:17:00,22.2,10.7,30.32,NW,318,1.0,5.0,61,-99.99,,,0.00,1-wire,2013-02-20 23:17:00,
2013-02-20 17:22:00,22.2,11.0,30.32,NNW,328,1.0,3.0,62,-99.99,,,0.00,1-wire,2013-02-20 23:22:00,
2013-02-20 17:28:00,22.0,11.1,30.32,NNW,328,2.0,6.0,62,-99.99,,,0.00,1-wire,2013-02-20 23:28:00,
2013-02-20 17:33:00,22.1,11.7,30.32,NNW,328,1.0,3.0,64,-99.99,,,0.00,1-wire,2013-02-20 23:33:00,
2013-02-20 17:39:00,21.7,11.0,30.32,NNW,328,4.0,6.0,63,-99.99,,,0.00,1-wire,2013-02-20 23:39:00,
2013-02-20 17:44:00,21.6,10.8,30.32,NNW,328,2.0,3.0,62,-99.99,,,0.00,1-wire,2013-02-20 23:44:00,
2013-02-20 17:49:00,21.6,11.2,30.32,NNW,328,2.0,6.0,64,-99.99,,,0.00,1-wire,2013-02-20 23:49:00,
2013-02-20 17:54:00,21.8,10.8,30.33,NNW,329,2.0,6.0,62,-99.99,,,0.00,1-wire,2013-02-20 23:54:00,
2013-02-20 17:59:00,21.6,10.7,30.32,NNW,329,4.0,10.0,62,-99.99,,,0.00,1-wire,2013-02-20 23:59:00,
2013-02-20 18:04:00,22.0,11.6,30.33,NNW,329,0.0,0.0,63,-99.99,,,0.00,1-wire,2013-02-21 00:04:00,
2013-02-20 18:09:00,21.9,11.4,30.33,NNW,338,1.0,6.0,63,-99.99,,,0.00,1-wire,2013-02-21 00:09:00,
2013-02-20 18:14:00,21.8,11.3,30.33,NNW,338,2.0,3.0,63,-99.99,,,0.00,1-wire,2013-02-21 00:14:00,
2013-02-20 18:19:00,21.5,11.3,30.33,NNW,338,1.0,3.0,64,-99.99,,,0.00,1-wire,2013-02-21 00:19:00,
2013-02-20 18:24:00,21.7,11.5,30.33,NNW,339,0.0,3.0,64,-99.99,,,0.00,1-wire,2013-02-21 00:24:00,
2013-02-20 18:29:00,21.7,11.5,30.33,NNW,339,2.0,3.0,64,-99.99,,,0.00,1-wire,2013-02-21 00:29:00,
2013-02-20 18:34:00,22.1,11.9,30.33,NNW,339,0.0,0.0,64,-99.99,,,0.00,1-wire,2013-02-21 00:34:00,
2013-02-20 18:39:00,21.9,11.7,30.33,NNW,340,0.0,0.0,64,-99.99,,,0.00,1-wire,2013-02-21 00:39:00,
2013-02-20 18:44:00,21.9,11.8,30.33,NNW,340,0.0,0.0,65,-99.99,,,0.00,1-wire,2013-02-21 00:44:00,
2013-02-20 18:49:00,22.0,12.1,30.33,NNW,340,0.0,0.0,65,-99.99,,,0.00,1-wire,2013-02-21 00:49:00,
2013-02-20 18:54:00,21.8,12.1,30.33,NNW,339,0.0,0.0,66,-99.99,,,0.00,1-wire,2013-02-21 00:54:00,
2013-02-20 18:59:00,21.6,12.4,30.32,NNW,339,0.0,0.0,67,-99.99,,,0.00,1-wire,2013-02-21 00:59:00,
2013-02-20 19:04:00,21.2,11.9,30.32,NNW,339,1.0,3.0,67,-99.99,,,0.00,1-wire,2013-02-21 01:04:00,
2013-02-20 19:09:00,21.1,11.5,30.31,NNW,348,2.0,6.0,66,-99.99,,,0.00,1-wire,2013-02-21 01:09:00,
2013-02-20 19:14:00,20.9,11.5,30.31,NNW,348,1.0,5.0,66,-99.99,,,0.00,1-wire,2013-02-21 01:14:00,
2013-02-20 19:19:00,20.9,11.5,30.31,NNW,348,2.0,3.0,66,-99.99,,,0.00,1-wire,2013-02-21 01:19:00,
2013-02-20 19:24:00,20.8,11.5,30.31,North,354,1.0,3.0,67,-99.99,,,0.00,1-wire,2013-02-21 01:24:00,
2013-02-20 19:29:00,20.9,11.4,30.31,North,354,0.0,3.0,66,-99.99,,,0.00,1-wire,2013-02-21 01:29:00,
2013-02-20 19:34:00,20.5,11.4,30.31,North,354,3.0,6.0,67,-99.99,,,0.00,1-wire,2013-02-21 01:34:00,
2013-02-20 19:39:00,20.5,11.4,30.31,North,353,1.0,3.0,68,-99.99,,,0.00,1-wire,2013-02-21 01:39:00,
2013-02-20 19:44:00,20.6,11.7,30.31,North,353,2.0,3.0,68,-99.99,,,0.00,1-wire,2013-02-21 01:44:00,
2013-02-20 19:50:00,20.5,11.7,30.31,North,353,1.0,3.0,68,-99.99,,,0.00,1-wire,2013-02-21 01:50:00,
2013-02-20 19:55:00,20.6,11.8,30.31,North,2,0.0,3.0,68,-99.99,,,0.00,1-wire,2013-02-21 01:55:00,
2013-02-20 20:01:00,20.6,11.9,30.31,North,2,0.0,0.0,69,-99.99,,,0.00,1-wire,2013-02-21 02:01:00,
2013-02-20 20:06:00,20.4,11.7,30.31,NNW,345,0.0,3.0,69,-99.99,,,0.00,1-wire,2013-02-21 02:06:00,
2013-02-20 20:11:00,20.5,12.1,30.31,NNW,345,0.0,0.0,69,-99.99,,,0.00,1-wire,2013-02-21 02:11:00,
2013-02-20 20:17:00,20.6,12.3,30.31,NNW,345,0.0,0.0,70,-99.99,,,0.00,1-wire,2013-02-21 02:17:00,
2013-02-20 20:22:00,19.9,11.8,30.31,NNW,339,0.0,0.0,70,-99.99,,,0.00,1-wire,2013-02-21 02:22:00,
2013-02-20 20:28:00,20.0,12.0,30.31,NNW,339,0.0,3.0,71,-99.99,,,0.00,1-wire,2013-02-21 02:28:00,
2013-02-20 20:33:00,19.7,11.9,30.32,NNW,339,2.0,6.0,71,-99.99,,,0.00,1-wire,2013-02-21 02:33:00,
2013-02-20 20:38:00,19.7,11.6,30.32,North,352,0.0,3.0,70,-99.99,,,0.00,1-wire,2013-02-21 02:38:00,
2013-02-20 20:43:00,19.5,11.5,30.32,North,352,1.0,3.0,70,-99.99,,,0.00,1-wire,2013-02-21 02:43:00,
2013-02-20 20:48:00,19.8,11.3,30.32,North,352,0.0,3.0,69,-99.99,,,0.00,1-wire,2013-02-21 02:48:00,
2013-02-20 20:53:00,19.6,11.6,30.33,NNW,345,1.0,3.0,71,-99.99,,,0.00,1-wire,2013-02-21 02:53:00,
2013-02-20 20:58:00,19.8,11.8,30.33,NNW,345,1.0,3.0,71,-99.99,,,0.00,1-wire,2013-02-21 02:58:00,
2013-02-20 21:03:00,19.7,11.9,30.33,NNW,345,0.0,0.0,71,-99.99,,,0.00,1-wire,2013-02-21 03:03:00,
2013-02-20 21:08:00,19.4,11.9,30.32,NW,309,0.0,0.0,72,-99.99,,,0.00,1-wire,2013-02-21 03:08:00,
2013-02-20 21:13:00,18.8,11.9,30.33,NW,309,0.0,0.0,74,-99.99,,,0.00,1-wire,2013-02-21 03:13:00,
2013-02-20 21:18:00,18.9,11.9,30.33,NW,309,0.0,0.0,74,-99.99,,,0.00,1-wire,2013-02-21 03:18:00,
2013-02-20 21:23:00,18.7,11.1,30.33,NW,321,1.0,3.0,72,-99.99,,,0.00,1-wire,2013-02-21 03:23:00,
2013-02-20 21:28:00,18.8,10.7,30.33,NW,321,2.0,6.0,70,-99.99,,,0.00,1-wire,2013-02-21 03:28:00,
2013-02-20 21:33:00,19.1,10.7,30.33,NW,321,2.0,6.0,69,-99.99,,,0.00,1-wire,2013-02-21 03:33:00,
2013-02-20 21:38:00,19.1,10.8,30.33,NW,323,2.0,3.0,70,-99.99,,,0.00,1-wire,2013-02-21 03:38:00,
2013-02-20 21:43:00,19.2,10.5,30.33,NW,323,1.0,3.0,68,-99.99,,,0.00,1-wire,2013-02-21 03:43:00,
2013-02-20 21:48:00,19.4,10.7,30.33,NW,323,1.0,3.0,68,-99.99,,,0.00,1-wire,2013-02-21 03:48:00,
2013-02-20 21:53:00,19.4,10.9,30.33,NW,323,0.0,3.0,69,-99.99,,,0.00,1-wire,2013-02-21 03:53:00,
2013-02-20 21:58:00,19.8,11.4,30.33,NW,323,0.0,0.0,69,-99.99,,,0.00,1-wire,2013-02-21 03:58:00,
2013-02-20 22:03:00,19.5,11.3,30.33,NW,323,0.0,0.0,70,-99.99,,,0.00,1-wire,2013-02-21 04:03:00,
2013-02-20 22:09:00,19.0,11.5,30.33,North,353,0.0,3.0,72,-99.99,,,0.00,1-wire,2013-02-21 04:09:00,
2013-02-20 22:14:00,19.0,11.6,30.33,North,353,0.0,0.0,72,-99.99,,,0.00,1-wire,2013-02-21 04:14:00,
2013-02-20 22:19:00,18.6,11.6,30.33,North,353,0.0,0.0,73,-99.99,,,0.00,1-wire,2013-02-21 04:19:00,
2013-02-20 22:24:00,18.1,10.9,30.33,North,353,0.0,3.0,73,-99.99,,,0.00,1-wire,2013-02-21 04:24:00,
2013-02-20 22:29:00,18.5,11.0,30.33,North,353,0.0,3.0,72,-99.99,,,0.00,1-wire,2013-02-21 04:29:00,
2013-02-20 22:34:00,18.4,11.1,30.33,North,353,0.0,0.0,73,-99.99,,,0.00,1-wire,2013-02-21 04:34:00,
2013-02-20 22:39:00,18.5,11.1,30.33,North,351,0.0,0.0,72,-99.99,,,0.00,1-wire,2013-02-21 04:39:00,
2013-02-20 22:44:00,18.2,10.9,30.33,North,351,0.0,0.0,73,-99.99,,,0.00,1-wire,2013-02-21 04:44:00,
2013-02-20 22:49:00,18.0,10.5,30.33,North,351,0.0,0.0,72,-99.99,,,0.00,1-wire,2013-02-21 04:49:00,
2013-02-20 22:54:00,17.9,10.6,30.34,North,359,0.0,0.0,73,-99.99,,,0.00,1-wire,2013-02-21 04:54:00,
2013-02-20 22:59:00,17.9,10.7,30.33,North,359,0.0,0.0,73,-99.99,,,0.00,1-wire,2013-02-21 04:59:00,
2013-02-20 23:00:00,18.0,10.6,30.34,North,359,0.0,3.0,72,-99.99,,,0.00,1-wire,2013-02-21 05:00:00,
2013-02-20 23:01:00,17.8,10.5,30.34,North,359,0.0,0.0,72,-99.99,,,0.00,1-wire,2013-02-21 05:01:00,
2013-02-20 23:05:00,18.0,10.9,30.33,North,359,0.0,0.0,73,-99.99,,,0.00,1-wire,2013-02-21 05:05:00,
2013-02-20 23:08:00,17.5,10.3,30.34,North,356,0.0,0.0,73,-99.99,,,0.00,1-wire,2013-02-21 05:08:00,
2013-02-20 23:14:00,17.2,10.6,30.34,North,356,0.0,0.0,75,-99.99,,,0.00,1-wire,2013-02-21 05:14:00,
2013-02-20 23:19:00,17.4,11.2,30.34,North,356,0.0,0.0,76,-99.99,,,0.00,1-wire,2013-02-21 05:19:00,
2013-02-20 23:25:00,17.4,11.3,30.33,North,354,0.0,0.0,76,-99.99,,,0.00,1-wire,2013-02-21 05:25:00,
2013-02-20 23:30:00,16.7,10.9,30.34,North,354,0.0,0.0,77,-99.99,,,0.00,1-wire,2013-02-21 05:30:00,
2013-02-20 23:36:00,16.5,10.9,30.34,NNW,341,0.0,0.0,78,-99.99,,,0.00,1-wire,2013-02-21 05:36:00,
2013-02-20 23:42:00,16.3,10.9,30.34,NNW,341,0.0,0.0,79,-99.99,,,0.00,1-wire,2013-02-21 05:42:00,
2013-02-20 23:47:00,16.5,11.0,30.34,NNW,341,0.0,0.0,79,-99.99,,,0.00,1-wire,2013-02-21 05:47:00,
2013-02-20 23:53:00,16.5,10.9,30.34,North,354,0.0,0.0,78,-99.99,,,0.00,1-wire,2013-02-21 05:53:00,
2013-02-20 23:59:00,15.6,10.8,30.35,North,354,0.0,0.0,81,-99.99,,,0.00,1-wire,2013-02-21 05:59:00,